User: anonymous   Login
Location: Caltech
(34.1382°N, 118.1253°W)
Time: 20:36:25
(UTC-07:00)
Language:

Cosmos 1606 - Orbit

View from above orbital plane
View from above orbital plane
View from above satellite
View from above satellite

Ground track
Ground track

The orbit data is extracted from the following two-line orbital elements,

1 15369U 84111A   16244.03100903  .00000853  00000-0  43781-4 0  9995
2 15369  82.5264  47.8686 0018151 178.9011 181.2265 15.15013459736527
Epoch (UTC): 31 August 2016 00:44:39
Eccentricity: 0.0018151
inclination: 82.5264°
perigee height: 508 km
apogee height: 533 km
right ascension of ascending node: 47.8686°
argument of perigee: 178.9011°
revolutions per day: 15.15013459
mean anomaly at epoch: 181.2265°
orbit number at epoch: 73652

The dashed part of the orbit path shows where the satellite is in the earth's shadow,  

DLR